Location: Waco, TX
(31.5480°N, 97.1670°W)
Time: 22:57:44
(UTC-05:00)

ISS - Pass Details

Date: 24 April 2018
Orbit: 403 x 406 km, 51.6° (Epoch: 23 April)

Event Time Altitude Azimuth Distance (km) Brightness Sun altitude
Rises 08:51:38 0° 245° (WSW) 2,303 -0.5 24.7°
Reaches altitude 10° 08:53:51 10° 256° (WSW) 1,448 -1.5 25.2°
Maximum altitude 08:56:46 30° 320° (NW) 742 -2.6 25.8°
Drops below altitude 10° 08:59:42 10° 24° (NNE) 1,456 -0.6 26.4°
Sets 09:01:57 0° 36° (NE) 2,318 0.5 26.9°
